Погода в Усть-Ише

Россия / Алтайский край     52°10′50″N   85°57′51″E
темп.,
°C
ветер,
м/с
пор.,
м/с
влажн.,
%
обл.,
%
осадки,
мм/ч
давл.,
гПа
погр.,
м
7 мая, пт
пт701:00+15юв3263100 0.0 100621
04:00+15ю3356100 0.0 100535
07:00+16ююв2259100 0.0 100624
10:00+20з5956100 0.0 1008517
13:00+19з6963100 0.1 10101089
16:00+13з61190100 3.3 1013630
19:00+12зюз41088100 4.3 1016489
22:00+10юз2389100 0.0 101841
8 мая, сб
сб801:00+9юз2289100 0.0 102014
04:00+8зюз1189100 0.0 102010
07:00+8зюз13885 0.0 102183
10:00+13з34610 0.0 1021616
13:00+16зсз34450 0.0 10201260
16:00+17зсз34390 0.0 10191401
19:00+17с11520 0.0 101981
22:00+11ююв22570 0.0 102010
9 мая, вс
вс901:00+9ю33670 0.0 102026
04:00+8ю22700 0.0 101920
07:00+9ю23720 0.0 101958
10:00+16юз33525 0.0 1018400
13:00+19з34405 0.0 10161971
16:00+20зсз363840 0.0 10152354
19:00+16св486386 0.0 1015306
22:00+10св49675 0.0 1017176
10 мая, пн
пн1001:00+7св376311 0.0 1016132
04:00+5св35715 0.0 101686
07:00+6всв237412 0.0 101597
10:00+12всв2464100 0.0 1013486
13:00+16всв3454100 0.0 10101027
16:00+17св445283 0.0 10081018
19:00+15св5859100 0.0 1008354
22:00+10св246298 0.0 100876
11 мая, вт
вт1101:00+8ссв016976 0.0 100810
04:00+8зсз1170100 0.0 100910
07:00+8з1172100 0.0 101024
10:00+9з2370100 0.0 1011283
13:00+9зюз237398 0.0 1011294
16:00+11ююз4474100 0.1 1011443
19:00+9ююз3489100 1.0 1013231
22:00+8ю2293100 0.1 101337